World > North America > United States > Arizona
Hourly Weather in Sahuarita, ArizonaSahuarita, Arizona Hourly Weather

Sahuarita, AZ Hourly Weather

Hourly Weather Sahuarita, ArizonaHourly Weather in Sahuarita, AZ
Lat: 31.96N, Lon: 110.95W  ICAO: KTUS
Web Search

Did you know? You can add this page to Bookmarks by pressing the Ctrl key & d key at the same time. Mac users press command & d.

Feedback

Sahuarita Hourly Weather

36 Hour Weather Scroll   °F Click to change Sahuarita hourly weather to Imperial units.Click to change Sahuarita hourly weather to Metric units. °C
Currently, Clear, temperature is 54°F12°C, dew point 31°F-1°C, humidity 42%. Wind direction is SSE at 12 mph19 km/h with visibility of 10.00 mi16 km. Barometric pressure is 30.03 in1017 mb.

Jan 21
11:00 AM

Jan 21
NOON

Jan 21
1:00 PM

Jan 21
2:00 PM

Jan 21
3:00 PM

Jan 21
4:00 PM

Jan 21
5:00 PM

Jan 21
6:00 PM

Jan 21
7:00 PM

Jan 21
8:00 PM

Jan 21
9:00 PM

Jan 21
10:00 PM

Jan 21
11:00 PM

Jan 22
MIDNIGHT

Jan 22
1:00 AM

Jan 22
2:00 AM

Jan 22
3:00 AM

Jan 22
4:00 AM

Jan 22
5:00 AM

Jan 22
6:00 AM

Jan 22
7:00 AM

Jan 22
8:00 AM

Jan 22
9:00 AM

Jan 22
10:00 AM

Jan 22
11:00 AM

Jan 22
NOON

Jan 22
1:00 PM

Jan 22
2:00 PM

Jan 22
3:00 PM

Jan 22
4:00 PM

Jan 22
5:00 PM

Jan 22
6:00 PM

Jan 22
7:00 PM

Jan 22
8:00 PM

Jan 22
9:00 PM

Jan 22
10:00 PM
Clear Clear Clear Clear Clear Mostly Cloudy Mostly Cloudy Mostly Cloudy Mostly Cloudy Mostly Cloudy Mostly Cloudy Mostly Cloudy Mostly Cloudy Mostly Cloudy Mostly Cloudy Mostly Cloudy Mostly Cloudy Mostly Cloudy Mostly Cloudy Mostly Cloudy Cloudy Cloudy Cloudy Cloudy Cloudy Cloudy Cloudy Cloudy Cloudy Cloudy Cloudy Cloudy Cloudy Cloudy Cloudy Cloudy
Clear Clear Clear Clear Clear Mostly Cloudy Mostly Cloudy Mostly Cloudy Mostly Cloudy Mostly Cloudy Mostly Cloudy Mostly Cloudy Mostly Cloudy Mostly Cloudy Mostly Cloudy Mostly Cloudy Mostly Cloudy Mostly Cloudy Mostly Cloudy Mostly Cloudy Cloudy Cloudy Cloudy Cloudy Cloudy Cloudy Cloudy Cloudy Cloudy Cloudy Cloudy Cloudy Cloudy Cloudy Cloudy Cloudy
58°F14°C 61°F16°C 63°F17°C 66°F19°C 66°F19°C 66°F19°C 66°F19°C 63°F17°C 60°F16°C 57°F14°C 55°F13°C 53°F12°C 51°F11°C 50°F10°C 49°F9°C 48°F9°C 48°F9°C 47°F8°C 47°F8°C 47°F8°C 48°F9°C 48°F9°C 52°F11°C 55°F13°C 59°F15°C 60°F16°C 61°F16°C 62°F17°C 61°F16°C 59°F15°C 58°F14°C 57°F14°C 55°F13°C 54°F12°C 53°F12°C 51°F11°C
- - - - - - - - - - - - - - - - - - - - - - - - - - - - - - - Rain Rain Rain Rain Rain
0% 0% 0% 0% 0% 0% 0% 0% 0% 0% 0% 0% 0% 0% 0% 0% 0% 0% 0% 0% 0% 0% 0% 0% 0% 14% 14% 14% 14% 14% 14% 22% 22% 22% 22% 22%
29°F-2°C 28°F-2°C 27°F-3°C 26°F-3°C 26°F-3°C 26°F-3°C 26°F-3°C 27°F-3°C 28°F-2°C 29°F-2°C 29°F-2°C 30°F-1°C 30°F-1°C 30°F-1°C 30°F-1°C 30°F-1°C 30°F-1°C 30°F-1°C 30°F-1°C 30°F-1°C 30°F-1°C 30°F-1°C 29°F-2°C 29°F-2°C 28°F-2°C 28°F-2°C 29°F-2°C 29°F-2°C 30°F-1°C 32°F0°C 33°F1°C 34°F1°C 36°F2°C 37°F3°C 37°F3°C 38°F3°C
33% 28% 25% 22% 22% 22% 22% 25% 29% 34% 37% 41% 44% 46% 48% 49% 49% 51% 51% 51% 49% 49% 41% 37% 30% 29% 30% 29% 31% 36% 39% 42% 49% 52% 54% 61%
SE SE E E S SSW NW NW W SSW SW S SSE SSE SE SE SE SE SE SSE SSE SSE SSE SE SE SSE S S SSE SE E E ENE NE ENE E
6 mph 6 mph 5 mph 5 mph 5 mph 6 mph 6 mph 6 mph 4 mph 4 mph 4 mph 6 mph 6 mph 6 mph 8 mph 8 mph 8 mph 6 mph 6 mph 6 mph 5 mph 5 mph 5 mph 6 mph 6 mph 6 mph 11 mph 11 mph 11 mph 11 mph 11 mph 11 mph 5 mph 5 mph 5 mph 6 mph
10 mi16 km 10 mi16 km 10 mi16 km 10 mi16 km 10 mi16 km 10 mi16 km 10 mi16 km 10 mi16 km 10 mi16 km 10 mi16 km 10 mi16 km 10 mi16 km 10 mi16 km 10 mi16 km 10 mi16 km 10 mi16 km 10 mi16 km 10 mi16 km 10 mi16 km 10 mi16 km 10 mi16 km 10 mi16 km 10 mi16 km 10 mi16 km 10 mi16 km 10 mi16 km 10 mi16 km 10 mi16 km 10 mi16 km 10 mi16 km 10 mi16 km 10 mi16 km 10 mi16 km 10 mi16 km 10 mi16 km 10 mi16 km
Hour (MST)
Weather
Clouds
Temperature
Precip. Type
POP
Dewpoint
Humidity
Wind Direction
Wind Speed
Visibility
POP = Probability of Precipitation. ** Indicates missing data/values from model statistics.

24 Hour Forecast

Today - Sunny. Highs 64 to 70. Southeast wind 5 to 10 mph becoming west in the afternoon.
Tonight - Mostly clear. Lows 35 to 41. West wind 5 to 10 mph becoming south after midnight. Gusts up to 25 mph.

48 Hour Forecast API Feed


Fri, Jan 21
11:00 am

Fri, Jan 21
Noon

Fri, Jan 21
1:00 pm

Fri, Jan 21
2:00 pm

Fri, Jan 21
3:00 pm

Fri, Jan 21
4:00 pm

Fri, Jan 21
5:00 pm

Fri, Jan 21
6:00 pm

Fri, Jan 21
7:00 pm

Fri, Jan 21
8:00 pm

Fri, Jan 21
9:00 pm

Fri, Jan 21
10:00 pm

Fri, Jan 21
11:00 pm

Sat, Jan 22
Midnight

Sat, Jan 22
1:00 am

Sat, Jan 22
2:00 am

Sat, Jan 22
3:00 am

Sat, Jan 22
4:00 am

Sat, Jan 22
5:00 am

Sat, Jan 22
6:00 am

Sat, Jan 22
7:00 am

Sat, Jan 22
8:00 am

Sat, Jan 22
9:00 am

Sat, Jan 22
10:00 am

Sat, Jan 22
11:00 am

Sat, Jan 22
Noon

Sat, Jan 22
1:00 pm

Sat, Jan 22
2:00 pm

Sat, Jan 22
3:00 pm

Sat, Jan 22
4:00 pm

Sat, Jan 22
5:00 pm

Sat, Jan 22
6:00 pm

Sat, Jan 22
7:00 pm

Sat, Jan 22
8:00 pm

Sat, Jan 22
9:00 pm

Sat, Jan 22
10:00 pm

Sat, Jan 22
11:00 pm

Sun, Jan 23
Midnight

Sun, Jan 23
1:00 am

Sun, Jan 23
2:00 am

Sun, Jan 23
3:00 am

Sun, Jan 23
4:00 am

Sun, Jan 23
5:00 am

Sun, Jan 23
6:00 am

Sun, Jan 23
7:00 am

Sun, Jan 23
8:00 am

Sun, Jan 23
9:00 am

Sun, Jan 23
10:00 am
SunnySunnySunnySunnySunnySunnySunnyClearClearClearClearClearClearClearClearClearClearClearClearClearClearSunnySunnySunnySunnySunnySunnySunnySunnySunnySunnyClearClearClearClearClearClearClearPatchy Rain PossiblePatchy Rain PossiblePatchy Rain PossiblePatchy Rain PossiblePatchy Rain PossibleLight Rain ShowerLight Rain ShowerLight Rain ShowerLight Rain ShowerLight Rain Shower
Sunny Sunny Sunny Sunny Sunny Sunny Sunny Clear Clear Clear Clear Clear Clear Clear Clear Clear Clear Clear Clear Clear Clear Sunny Sunny Sunny Sunny Sunny Sunny Sunny Sunny Sunny Sunny Clear Clear Clear Clear Clear Clear Clear Patchy rain possible Patchy rain possible Patchy rain possible Patchy rain possible Patchy rain possible Light rain showers Light rain showers Light rain showers Light rain showers Light rain showers
59°F
15°C
63°F
17°C
67°F
19°C
69°F
21°C
71°F
22°C
72°F
22°C
71°F
22°C
69°F
20°C
60°F
16°C
53°F
11°C
51°F
11°C
50°F
10°C
49°F
9°C
48°F
9°C
47°F
8°C
47°F
8°C
46°F
8°C
45°F
7°C
45°F
7°C
44°F
7°C
43°F
6°C
43°F
6°C
45°F
7°C
52°F
11°C
57°F
14°C
60°F
15°C
61°F
16°C
63°F
17°C
63°F
17°C
63°F
17°C
63°F
17°C
62°F
17°C
57°F
14°C
53°F
12°C
51°F
10°C
50°F
10°C
48°F
9°C
46°F
8°C
45°F
7°C
43°F
6°C
42°F
6°C
42°F
6°C
42°F
5°C
41°F
5°C
41°F
5°C
40°F
5°C
42°F
6°C
47°F
9°C
31°F
-0°C
29°F
-2°C
27°F
-3°C
25°F
-4°C
23°F
-5°C
22°F
-5°C
24°F
-5°C
26°F
-3°C
25°F
-4°C
22°F
-6°C
22°F
-5°C
23°F
-5°C
23°F
-5°C
23°F
-5°C
23°F
-5°C
23°F
-5°C
23°F
-5°C
22°F
-6°C
22°F
-6°C
22°F
-6°C
23°F
-5°C
23°F
-5°C
26°F
-4°C
28°F
-2°C
28°F
-2°C
28°F
-2°C
28°F
-2°C
28°F
-3°C
28°F
-2°C
28°F
-2°C
28°F
-2°C
29°F
-2°C
30°F
-1°C
30°F
-1°C
31°F
-1°C
31°F
-1°C
30°F
-1°C
30°F
-1°C
32°F
-0°C
32°F
-0°C
33°F
0°C
33°F
1°C
34°F
1°C
34°F
1°C
33°F
1°C
33°F
1°C
33°F
1°C
35°F
2°C
30.03 in
1017 mb
30 in
1016 mb
29.97 in
1015 mb
29.91 in
1013 mb
29.88 in
1012 mb
29.85 in
1011 mb
29.83 in
1010 mb
29.83 in
1010 mb
29.85 in
1011 mb
29.88 in
1012 mb
29.88 in
1012 mb
29.88 in
1012 mb
29.88 in
1012 mb
29.88 in
1012 mb
29.88 in
1012 mb
29.88 in
1012 mb
29.88 in
1012 mb
29.88 in
1012 mb
29.88 in
1012 mb
29.88 in
1012 mb
29.91 in
1013 mb
29.94 in
1014 mb
29.94 in
1014 mb
29.94 in
1014 mb
29.97 in
1015 mb
29.97 in
1015 mb
29.97 in
1015 mb
29.91 in
1013 mb
29.91 in
1013 mb
29.91 in
1013 mb
29.91 in
1013 mb
29.91 in
1013 mb
29.94 in
1014 mb
29.97 in
1015 mb
30 in
1016 mb
30 in
1016 mb
30 in
1016 mb
30.03 in
1017 mb
30.03 in
1017 mb
30.03 in
1017 mb
30.03 in
1017 mb
30.03 in
1017 mb
30.03 in
1017 mb
30.03 in
1017 mb
30.03 in
1017 mb
30.06 in
1018 mb
30.09 in
1019 mb
30.09 in
1019 mb
34%28%22%19%16%15%17%20%26%29%32%34%36%37%39%39%39%39%40%42%43%46%46%39%33%30%28%26%26%26%27%28%35%40%47%47%50%53%60%63%68%70%73%76%76%76%71%63%
SSESSESSWSWSWWSWWSWWSWWSWSWSSWSSWSSSSSSSESSESSESSESSESSESSESSESSSSSWSSWSSSSSESESESESESESESESESESESSESSESSEESE
5 mph
9 km/h
4 mph
7 km/h
5 mph
8 km/h
8 mph
12 km/h
9 mph
15 km/h
11 mph
18 km/h
12 mph
19 km/h
10 mph
17 km/h
7 mph
12 km/h
7 mph
12 km/h
7 mph
11 km/h
6 mph
10 km/h
6 mph
10 km/h
6 mph
10 km/h
6 mph
10 km/h
7 mph
11 km/h
7 mph
11 km/h
7 mph
11 km/h
7 mph
11 km/h
6 mph
9 km/h
6 mph
10 km/h
6 mph
9 km/h
5 mph
8 km/h
4 mph
6 km/h
5 mph
8 km/h
8 mph
12 km/h
9 mph
14 km/h
12 mph
20 km/h
15 mph
24 km/h
15 mph
24 km/h
14 mph
23 km/h
13 mph
20 km/h
8 mph
13 km/h
5 mph
9 km/h
4 mph
7 km/h
6 mph
10 km/h
6 mph
9 km/h
7 mph
11 km/h
6 mph
10 km/h
5 mph
8 km/h
4 mph
7 km/h
4 mph
7 km/h
4 mph
7 km/h
4 mph
6 km/h
3 mph
5 km/h
3 mph
5 km/h
3 mph
5 km/h
3 mph
5 km/h
0%0%0%0%0%0%0%0%0%0%0%0%0%0%0%0%0%0%0%0%0%0%0%0%0%0%0%0%0%0%0%0%0%0%0%0%0%0%84%83%66%85%75%81%81%81%67%68%
6 mi
10 km
6 mi
10 km
6 mi
10 km
6 mi
10 km
6 mi
10 km
6 mi
10 km
6 mi
10 km
6 mi
10 km
6 mi
10 km
6 mi
10 km
6 mi
10 km
6 mi
10 km
6 mi
10 km
6 mi
10 km
6 mi
10 km
6 mi
10 km
6 mi
10 km
6 mi
10 km
6 mi
10 km
6 mi
10 km
6 mi
10 km
6 mi
10 km
6 mi
10 km
6 mi
10 km
6 mi
10 km
6 mi
10 km
6 mi
10 km
6 mi
10 km
6 mi
10 km
6 mi
10 km
6 mi
10 km
6 mi
10 km
6 mi
10 km
6 mi
10 km
6 mi
10 km
6 mi
10 km
6 mi
10 km
6 mi
10 km
6 mi
10 km
6 mi
10 km
6 mi
9 km
6 mi
10 km
6 mi
9 km
6 mi
10 km
6 mi
10 km
6 mi
10 km
6 mi
10 km
6 mi
10 km

Day/Time
Weather
Condition
Temperature
Dew Point
Pressure
Humidity
Wind Direction
Wind Speed
Prob Precip %
Visibility
Prob Precip % = Probability of Precipitation.